Regional Weather Roundup
Issued by NWS

Home | Current Version | Previous Version | Text Only | Print | Product List | Glossary On
Versions: 1 2 3 4 5 6 7 8 9 10 11 12 13 14 15 16 17 18 19 20 21 22 23 24 25 26 27 28 29 30 31 32 33 34 35 36 37 38 39 40 41 42 43 44 45 46 47 48 49 50
000
ASUS43 KTOP 280359
RWRKS

WEATHER ROUNDUP FOR KANSAS
NATIONAL WEATHER SERVICE GOODLAND KS
1100 PM CDT TUE JUN 27 2017

NOTE:  "FAIR" INDICATES FEW OR NO CLOUDS BELOW 12,000 FEET WITH NO
SIGNIFICANT WEATHER AND/OR OBSTRUCTIONS TO VISIBILITY.

KSZ001>006-013>018-027>032-041>047-280500-
NORTHWEST KANSAS

CITY           SKY/WX    TMP DP  RH WIND       PRES   REMARKS
GOODLAND       CLOUDY    77  53  43 S26G48    29.71F
HAYS           MOCLDY    83  62  49 S23G33    29.71F
HILL CITY      CLOUDY    85  60  42 S20G32    29.71R
RUSSELL        CLOUDY    82  60  47 S21       29.72F
$$

KSZ061>065-074>080-084>089-280500-
SOUTHWEST KANSAS

CITY           SKY/WX    TMP DP  RH WIND       PRES   REMARKS
DODGE CITY     MOCLDY    81  60  48 S24G32    29.79S
GARDEN CITY    CLOUDY    81  56  42 S23G32    29.76R
GREAT BEND     CLOUDY    83  62  49 S22G28    29.77S
LIBERAL        CLEAR     81  57  43 S24       29.81R
$$

KSZ066>073-081>083-090>101-280500-
SOUTHEAST KANSAS

CITY           SKY/WX    TMP DP  RH WIND       PRES   REMARKS
CHANUTE          N/A     77  63  61 MISG      29.92R
COFFEYVILLE    CLEAR     75  65  70 S10       29.93R HAZE
HUTCHINSON     PTCLDY    82  64  54 S22       29.82R
MEDICINE LODGE   N/A     83  60  45 S16G22    29.83R
NEWTON         PTCLDY    77  66  68 S20       29.86R
PARSONS        CLEAR     76  64  66 S7        29.94R
WICHITA INTL   PTCLDY    79  66  64 S17       29.86R
WICHITA JABRA  CLEAR     78  66  66 S15       29.87R
WICHITA MCCONL CLEAR     79  65  61 S16       29.87R
WINFIELD       PTCLDY    77  67  71 S16       29.90R
$$

KSZ007>012-019>026-033>040-048>060-102>105-280500-
NORTHEAST KANSAS

CITY           SKY/WX    TMP DP  RH WIND       PRES   REMARKS
CONCORDIA      CLOUDY    79  68  69 S24G35    29.74F
EMPORIA        CLOUDY    76  63  64 S20G29    29.87R
LAWRENCE       CLOUDY    74  68  81 SE10      29.88R
MANHATTAN      CLOUDY    79  65  62 S18G30    29.81R
OLATHE IND     CLEAR     74  65  73 S12       29.91R
OLATHE EXE     CLEAR     72  67  84 S13       29.92R
SALINA         PTCLDY    82  66  58 S18       29.78S
TOPEKA BILLARD CLOUDY    76  66  71 SE13      29.86R
TOPEKA FORBES  CLOUDY    77  65  66 SE14G22   29.86S
$$




USA.gov is the U.S. government's official web portal to all federal, state and local government web resources and services.